Location: Elaina
(34.1445°N, 106.7742°W)
Time: 07:07:20
(UTC+00:00)

NOSS 3-1 (C) - Pass Details

Date: 22 March 2026
Orbit: 618 x 1583 km, 63.4° (Epoch: 10 January)

Event Time Altitude Azimuth Distance (km) Brightness Sun altitude
Rises 12:31:52 0° 326° (NNW) 3,978 6.4 -8.3°
Reaches altitude 10° 12:34:22 10° 325° (NW) 3,140 5.9 -7.8°
Maximum altitude 12:42:08 73° 242° (WSW) 1,446 4.3 -6.2°
Drops below altitude 10° 12:51:25 10° 160° (SSE) 3,713 6.7 -4.2°
Sets 12:54:36 0° 159° (SSE) 4,737 7.3 -3.6°
